Location: Cicognara
(44.9500°N, 10.4667°E)
Time: 15:32:47
(UTC+00:00)

Cosmos 990 Rocket - Pass Details

Date: 20 June 2021
Orbit: 747 x 768 km, 74.0° (Epoch: 02 August)

Event Time Altitude Azimuth Distance (km) Brightness Sun altitude
Rises 23:33:16 0° 340° (NNW) 3,224 8.4 -21.5°
Reaches altitude 10° 23:35:40 10° 343° (NNW) 2,291 7.4 -21.5°
Maximum altitude 23:40:51 71° 67° (ENE) 796 4.1 -21.4°
Enters shadow 23:42:45 39° 141° (SE) 1,119 4.5 -21.4°
